Wind_Speed
58 59 60 61 62 63 64 64 65 65 65 65 64 64 64 65 65 66 67 67 68 67 67 67 67 66 65 63 63 62 61 61 59 61 62 58 55 56 58 58 60 64 65 62 59 59 59 59 58 56 56 57 58 57 58 59 58 57 55 54 53 52 51
61 62 63 63 64 65 65 66 66 66 66 66 66 65 65 65 65 66 66 66 67 67 67 67 67 67 65 63 63 63 63 63 61 62 64 60 54 55 56 56 57 60 62 62 58 57 59 60 60 58 56 56 57 56 56 57 58 58 55 53 52 51 50
63 64 65 66 66 66 66 67 66 67 67 67 67 66 66 65 65 65 66 66 66 66 66 68 68 68 67 65 64 64 63 64 63 63 65 61 54 53 54 54 55 57 60 60 58 56 58 61 61 60 57 55 56 54 55 57 58 58 55 52 51 50 49
65 66 66 67 67 67 67 67 67 67 67 67 67 67 67 66 65 65 66 66 66 66 66 68 68 69 68 67 66 65 63 64 64 63 65 61 53 51 53 52 53 55 57 58 57 56 58 61 61 61 57 55 55 54 55 57 57 57 55 51 50 49 48
66 67 67 67 68 68 68 68 68 68 68 67 67 67 67 67 66 66 66 66 66 66 67 67 68 69 69 68 68 66 64 64 64 63 64 61 53 50 52 52 52 53 54 56 56 55 58 60 61 61 58 55 54 54 54 56 57 56 55 52 49 48 47
66 67 67 67 68 68 68 68 68 68 68 68 67 67 67 67 67 66 66 66 66 66 66 67 67 68 68 69 69 67 65 64 64 65 64 61 54 50 50 51 52 52 53 54 55 55 57 60 61 61 59 55 53 52 53 54 56 56 55 52 49 47 46
66 66 66 67 67 67 67 68 68 68 68 67 67 67 67 67 67 67 66 66 66 66 66 65 66 67 67 68 69 68 66 65 65 66 65 61 56 52 51 51 52 53 53 53 54 55 56 59 60 61 59 56 53 52 52 53 55 56 54 51 49 47 44
65 65 65 65 66 66 66 67 67 67 67 67 66 66 66 66 65 66 66 65 65 64 64 64 64 65 66 67 67 67 67 66 65 66 65 60 57 55 53 52 53 54 53 53 54 55 55 57 59 60 60 57 53 52 51 51 53 54 51 49 49 47 43
64 65 64 64 64 64 64 64 65 65 65 65 65 65 65 65 65 64 64 64 64 62 62 62 62 62 63 64 65 65 66 66 65 65 63 59 57 55 53 53 54 54 53 53 53 54 54 56 58 59 60 58 54 51 49 48 50 52 50 48 48 46 42
62 63 63 63 63 62 62 62 62 62 62 63 64 64 65 65 64 63 63 63 62 61 60 59 59 59 60 61 62 63 64 64 62 61 60 57 55 54 53 54 55 54 53 52 52 53 54 55 57 58 59 57 53 49 47 47 50 51 48 47 48 45 42
61 61 61 61 62 61 61 61 61 62 62 62 62 62 63 64 63 63 62 62 61 60 58 57 56 56 56 58 59 60 61 61 58 56 55 52 51 51 51 53 54 53 52 51 51 52 53 53 56 57 58 56 52 48 46 47 49 49 47 47 48 44 41
60 60 60 60 60 60 61 61 62 62 62 61 60 59 59 60 60 60 59 58 57 55 54 54 54 53 53 53 55 55 57 58 57 54 52 50 48 47 45 46 49 50 50 49 50 51 52 53 54 56 56 53 50 47 45 46 48 47 46 47 47 43 40
59 59 58 59 60 61 61 62 62 62 61 59 58 56 54 53 52 52 51 51 50 49 49 49 49 49 48 49 49 48 48 51 52 51 49 48 47 45 42 41 42 43 45 47 48 49 50 52 52 54 54 50 48 46 44 45 47 46 46 47 45 41 39
58 58 58 59 60 62 62 61 61 60 58 55 54 51 48 45 44 43 43 44 44 43 43 43 42 43 44 44 44 44 44 45 45 44 44 44 43 43 43 42 41 40 40 42 45 46 48 49 50 51 49 46 45 44 43 45 46 45 45 46 42 39 39
57 58 58 59 60 61 60 59 58 56 53 50 47 44 41 38 37 38 38 39 39 39 40 41 40 40 41 40 41 41 41 41 40 38 39 40 40 40 42 44 44 43 42 41 41 43 44 46 47 47 46 44 44 43 42 44 45 45 46 45 41 38 37
57 58 58 58 58 58 58 55 51 48 46 43 39 37 35 33 33 34 35 35 36 37 39 40 40 40 40 38 38 38 36 35 35 35 36 37 37 37 40 43 45 45 44 41 40 40 42 43 44 44 44 43 42 42 42 44 45 47 47 44 39 37 35
57 57 57 56 55 54 53 50 44 40 39 37 33 32 31 30 30 31 31 31 32 33 35 36 38 40 40 39 38 36 31 30 32 33 34 34 35 36 38 41 44 45 43 41 39 37 36 38 40 41 41 41 40 40 42 45 47 48 46 41 37 34 34
56 55 53 52 51 48 45 42 37 33 34 35 33 31 30 29 29 29 28 28 28 28 29 31 33 36 38 39 38 35 29 28 29 32 32 32 32 34 37 40 44 45 45 44 42 37 34 34 35 35 37 38 38 40 43 46 47 45 42 38 34 33 35
54 53 50 48 46 41 36 34 32 30 32 35 35 33 31 30 30 29 26 26 26 26 27 29 30 31 33 34 34 32 29 26 27 30 32 31 31 33 36 39 42 45 45 46 44 41 38 37 35 34 35 36 38 40 44 45 44 43 40 37 34 35 36
51 49 47 44 40 34 29 28 29 29 32 34 34 33 30 30 31 29 27 25 25 25 26 27 28 28 27 27 27 27 25 24 25 29 30 30 30 31 32 34 38 40 41 41 41 40 40 40 38 35 35 36 39 42 44 44 43 42 39 37 36 37 35
47 46 44 40 34 28 25 25 26 29 33 34 33 31 29 29 29 27 26 25 25 25 25 25 25 24 22 22 23 23 22 22 25 28 29 28 27 26 26 28 31 34 36 37 38 40 40 40 39 36 35 37 40 43 44 44 42 41 38 37 37 35 32
44 42 41 37 30 25 23 23 24 28 33 33 31 30 27 27 25 23 23 24 23 23 24 23 21 19 18 17 19 20 20 20 23 26 27 26 24 23 24 26 29 31 34 37 38 39 39 39 39 38 37 39 41 43 43 42 40 39 38 37 35 33 30
40 39 38 35 28 21 19 20 24 29 31 31 29 28 26 25 23 20 20 22 23 23 22 21 18 16 15 15 16 18 19 20 22 25 26 24 23 22 23 25 27 30 33 35 36 37 38 38 39 39 39 40 41 42 43 41 39 37 36 35 34 31 30
38 38 37 31 22 16 16 21 28 32 31 29 27 26 24 23 21 19 19 23 24 23 21 18 16 14 14 14 15 18 19 20 21 23 24 23 22 22 22 24 27 29 31 32 33 35 37 37 38 39 39 39 40 40 39 39 37 35 35 34 32 30 28
36 37 33 24 19 20 24 28 32 34 32 29 26 24 22 20 19 18 19 21 21 20 18 15 13 12 13 13 16 19 20 21 22 23 23 22 21 20 21 24 25 27 29 31 31 32 34 35 36 37 37 36 36 34 34 35 36 35 34 33 31 28 27
35 35 28 20 21 26 30 32 34 34 32 30 27 24 20 18 16 16 16 16 16 17 16 13 10 11 13 15 18 22 24 24 25 25 24 22 21 21 22 24 25 25 26 28 29 30 31 32 33 35 35 35 33 31 32 35 36 36 35 34 31 28 26
33 32 25 21 24 29 31 32 33 32 32 32 29 24 21 19 16 14 12 10 13 15 14 10 8 10 13 15 16 20 24 26 26 27 26 25 25 24 23 24 24 23 23 25 26 27 27 28 29 32 34 35 34 33 33 35 36 36 35 32 28 26 26
32 30 26 24 27 31 32 31 31 31 32 33 29 23 19 19 18 16 11 6 7 10 10 8 6 8 12 15 16 18 21 23 24 25 26 27 28 28 27 25 25 23 22 23 24 24 24 26 28 31 33 34 33 33 34 35 37 36 33 28 25 25 26
30 28 27 25 27 30 32 32 31 29 27 26 25 23 19 16 16 15 13 8 3 3 5 5 4 5 7 10 13 16 18 19 21 23 25 26 27 29 29 27 25 24 23 23 23 23 23 25 27 28 30 31 31 33 34 36 36 33 29 26 26 26 26
25 24 24 23 22 24 26 27 28 25 19 17 20 21 19 16 15 15 14 10 6 3 1 3 3 3 3 5 9 13 16 18 19 21 22 23 25 27 28 27 25 23 22 22 22 23 23 24 25 26 28 29 31 33 34 34 32 29 26 26 27 27 27
24 22 21 20 19 20 19 19 21 20 17 15 15 16 16 16 15 14 14 12 8 4 1 2 4 4 4 6 8 11 13 15 16 18 19 20 21 24 26 26 23 22 22 22 23 23 23 23 23 24 25 27 30 31 31 31 29 27 26 27 29 29 29
24 22 18 16 17 18 17 17 18 18 16 15 14 14 14 13 11 9 10 10 6 3 1 1 3 4 6 8 9 9 11 13 14 16 18 19 19 21 24 24 23 22 23 24 24 23 22 21 22 23 24 26 27 28 29 28 28 27 28 29 30 30 28
21 22 19 15 15 16 14 14 16 17 17 16 14 13 12 11 9 8 9 9 5 0 3 4 3 4 7 7 7 6 8 10 11 13 15 17 19 22 23 23 23 24 25 25 24 22 21 22 23 24 24 25 26 26 27 26 27 27 29 30 29 27 26
14 18 19 16 14 14 13 12 13 15 17 17 15 12 11 10 10 10 10 8 5 3 4 4 4 3 4 4 4 5 6 7 8 10 12 15 19 22 23 23 24 26 26 25 25 25 24 24 25 25 24 24 24 25 25 25 26 27 27 28 26 24 24
15 16 17 15 15 14 13 11 12 12 13 15 15 12 8 7 7 9 11 11 10 8 6 6 6 6 8 9 10 9 8 6 5 7 10 14 18 21 22 23 24 26 27 26 27 27 27 26 26 25 25 24 23 23 23 24 24 25 24 24 23 23 23
18 16 16 15 14 15 13 12 13 12 10 12 13 11 8 5 6 10 13 13 14 14 13 12 12 13 13 12 12 11 11 10 8 8 9 12 16 19 21 23 24 25 26 26 27 27 27 26 25 24 24 24 22 21 21 21 21 21 20 19 20 21 22
Wind_Direction
296 295 295 294 293 293 292 291 290 289 288 287 286 284 283 282 281 280 280 280 279 278 278 277 276 275 275 274 273 272 270 269 268 267 267 268 268 266 265 263 262 262 262 260 258 257 255 254 252 248 245 245 246 247 246 246 246 246 245 245 244 243 242
296 296 295 294 293 293 292 291 290 290 288 287 286 284 283 281 280 279 278 277 277 277 277 276 276 275 274 273 272 270 270 269 268 268 267 268 269 267 265 263 261 261 261 259 256 255 254 253 252 249 245 243 244 245 244 244 245 245 245 244 243 243 242
297 296 295 295 294 293 293 292 291 290 288 287 286 284 283 281 280 278 277 276 275 275 275 275 274 274 273 272 270 269 269 269 268 267 268 268 268 267 264 262 260 259 259 258 256 253 252 252 251 249 246 243 243 243 242 243 243 243 244 244 243 242 242
298 297 297 296 295 294 293 292 290 289 288 287 285 284 282 281 279 278 277 276 275 274 273 272 272 272 272 271 270 269 268 268 267 267 268 268 267 265 263 261 259 257 256 257 255 252 251 251 250 249 247 243 242 243 242 241 242 242 243 243 243 242 241
299 298 297 296 295 294 293 292 291 289 288 287 286 284 283 281 279 278 276 275 274 273 272 271 270 270 270 270 269 268 267 266 267 267 267 268 267 263 261 260 258 256 255 255 254 252 251 250 249 249 248 244 243 243 241 240 240 241 241 242 242 242 241
300 299 298 297 296 295 294 293 292 291 290 288 287 286 284 282 281 279 277 275 273 272 270 269 268 268 268 267 267 267 266 266 266 266 266 267 266 263 260 259 258 255 254 253 253 252 251 250 248 248 248 245 243 242 241 239 240 240 241 242 242 242 241
300 299 299 298 297 296 295 294 293 292 291 290 289 287 286 284 282 280 278 275 273 272 270 268 267 265 265 264 265 265 265 264 264 265 265 266 265 263 260 258 258 255 253 253 252 251 250 249 248 248 247 246 244 242 240 239 239 240 240 241 242 241 240
301 300 300 299 298 297 296 295 294 293 293 291 290 289 287 285 283 281 279 277 274 272 270 267 265 263 262 261 262 263 263 263 262 263 264 264 263 262 259 257 257 255 253 252 251 250 249 248 247 247 246 245 243 241 240 238 239 240 240 240 242 241 239
302 301 300 299 299 298 297 296 296 295 294 293 292 290 288 286 284 282 280 277 275 272 269 267 264 262 261 259 259 259 260 260 260 261 262 262 261 260 258 255 254 253 251 251 250 249 248 247 246 245 245 245 243 241 240 238 238 240 239 239 240 240 238
302 302 301 300 299 299 298 298 297 296 295 294 293 291 290 288 285 283 280 277 275 272 269 267 264 262 260 258 257 256 256 256 257 257 259 259 259 259 255 251 251 251 249 250 250 248 246 246 245 244 244 245 243 241 238 235 236 238 239 239 239 238 238
303 302 302 302 301 301 300 299 298 297 295 294 293 292 290 287 284 282 280 277 275 273 270 267 264 261 259 257 256 254 253 252 252 253 255 255 255 255 252 250 250 249 248 249 249 247 245 245 244 243 244 244 244 241 237 233 234 237 238 238 238 235 235
304 304 304 304 303 302 301 300 299 298 297 295 293 291 288 285 282 280 278 277 275 273 270 267 263 260 258 256 254 253 251 250 249 250 250 249 249 249 247 247 248 247 247 248 248 246 244 243 243 243 243 243 243 241 236 232 233 236 237 238 237 234 233
306 306 307 306 305 304 303 302 301 300 298 296 293 289 286 283 282 280 277 275 273 271 269 266 263 259 256 253 251 250 248 248 248 246 245 245 245 244 239 238 240 243 245 246 245 244 243 242 241 242 242 243 242 240 235 231 231 234 236 237 236 232 231
309 309 309 309 308 307 306 305 303 301 300 297 293 289 286 283 280 277 274 273 271 269 266 262 259 256 253 250 248 247 246 246 246 244 241 240 240 239 235 231 231 233 238 242 242 241 241 240 240 242 243 242 241 239 234 230 230 233 235 236 235 230 230
312 312 312 311 311 310 308 307 306 304 302 298 294 290 285 281 276 273 271 270 268 264 260 257 254 250 249 247 245 245 244 245 245 242 239 237 235 235 234 232 230 229 229 233 236 237 237 238 239 241 241 240 239 236 231 228 229 232 234 234 232 228 229
315 315 314 314 313 312 311 310 309 307 304 301 297 291 284 279 275 272 271 269 266 261 257 255 253 249 246 244 244 244 242 241 243 241 237 234 232 232 234 233 232 230 227 227 231 233 234 234 236 238 238 237 235 232 228 226 228 230 232 232 229 226 230
317 317 317 317 316 315 314 313 313 313 312 309 303 294 285 280 276 274 271 269 267 263 259 256 254 250 246 243 243 245 240 234 237 239 237 234 232 231 233 233 231 228 224 223 225 230 233 235 236 237 237 235 232 227 224 224 227 229 231 230 226 226 231
318 319 320 320 319 317 315 315 317 321 320 316 311 303 293 286 282 278 273 270 269 265 259 257 255 251 248 246 246 247 242 233 233 236 237 236 234 232 232 231 228 225 221 219 220 223 228 231 232 233 234 232 229 224 222 223 226 229 231 228 224 227 231
320 321 322 321 319 317 315 314 317 322 322 318 315 311 302 294 288 281 273 269 268 263 256 254 253 250 248 249 250 248 242 234 232 235 236 236 236 234 231 228 226 222 220 220 221 221 224 227 228 229 229 227 224 221 221 222 225 227 228 224 222 226 230
323 323 322 321 319 315 312 312 315 322 327 323 317 312 305 297 290 281 272 267 265 261 257 255 254 252 248 245 246 246 241 230 227 233 236 235 235 234 230 225 223 222 221 223 225 227 229 231 231 230 228 222 219 219 219 219 221 224 224 220 221 225 227
325 323 321 320 318 312 310 311 315 324 330 327 320 314 305 296 291 282 271 266 264 262 260 258 257 256 250 238 232 233 233 222 219 228 235 234 233 230 225 222 220 221 223 226 229 231 231 232 231 230 227 221 217 218 219 217 218 221 220 219 221 224 226
325 322 321 320 317 311 308 312 321 328 330 328 323 317 307 297 292 284 272 267 264 261 260 260 260 257 248 233 218 218 223 216 213 224 232 234 230 224 220 221 221 222 225 227 229 230 229 228 227 225 225 221 217 217 218 217 216 217 218 218 220 222 224
325 322 322 322 319 312 311 325 338 339 333 330 327 322 311 299 291 281 269 263 260 258 257 259 259 250 238 224 205 202 213 214 211 219 228 231 228 223 222 225 224 225 228 228 227 226 224 222 222 221 222 222 218 216 216 215 214 214 215 216 218 220 223
326 325 326 327 327 331 342 353 354 347 338 334 333 328 318 304 291 275 261 256 257 257 257 259 259 245 228 217 200 195 204 210 212 218 221 223 226 226 228 229 224 222 226 225 222 220 220 218 218 217 219 222 221 217 215 214 213 212 213 215 217 219 223
328 327 328 333 345 360 8 8 1 351 342 338 338 335 328 316 299 280 266 262 262 259 257 261 260 238 216 205 196 194 199 205 208 213 215 219 225 227 228 229 223 217 220 221 218 216 215 215 215 215 217 220 221 218 214 212 212 211 212 215 217 217 220
329 329 332 342 355 4 9 7 2 356 350 346 345 340 337 334 318 296 280 268 257 251 253 261 259 232 209 198 194 195 198 202 204 205 206 210 217 221 225 227 223 216 217 218 216 213 212 211 212 213 215 218 218 213 208 209 210 210 210 213 215 215 217
331 332 338 349 356 359 360 359 2 4 359 354 351 345 342 348 345 328 308 276 248 243 250 259 258 230 208 199 198 198 200 204 205 205 206 207 209 212 217 223 222 215 213 215 215 212 209 207 208 210 213 215 213 207 203 205 208 209 210 212 213 213 214
333 334 339 345 347 347 346 350 1 10 7 1 357 352 348 351 353 350 341 310 256 248 253 255 256 237 213 205 204 203 205 209 209 209 212 213 211 209 210 215 216 210 205 209 212 209 206 204 204 207 211 212 209 204 200 202 206 209 210 209 208 208 210
332 331 332 336 336 333 336 346 357 8 9 2 357 358 358 358 1 3 359 351 331 274 256 249 258 262 236 216 210 210 213 215 214 215 217 217 216 214 213 215 216 208 201 203 206 204 203 202 202 205 207 207 204 200 199 202 207 209 207 204 202 203 207
327 321 319 326 331 327 332 344 350 356 2 358 355 0 3 2 5 11 11 9 8 3 288 242 245 267 263 228 213 213 217 219 219 220 221 219 218 217 217 219 219 210 199 197 199 199 199 200 201 202 202 201 199 199 200 203 206 206 204 200 198 200 206
323 318 311 313 320 325 334 344 344 347 356 360 357 1 4 3 5 9 10 10 7 6 353 233 237 245 252 241 224 215 216 220 222 223 222 221 219 216 215 218 217 207 196 192 191 192 193 195 196 196 197 197 197 198 199 201 202 201 198 196 196 200 205
320 317 308 301 303 314 332 349 352 355 2 3 3 6 9 14 20 9 354 351 355 12 86 176 223 230 238 242 234 218 210 213 216 219 221 219 213 209 209 210 207 198 191 186 185 184 183 184 186 187 188 191 192 194 196 198 199 196 193 193 196 200 203
321 313 305 295 291 300 319 342 356 5 11 12 16 22 19 18 22 8 349 347 349 75 135 129 155 206 230 239 235 215 200 198 201 209 214 210 202 198 199 199 195 190 185 180 176 173 171 173 176 177 180 184 187 190 193 194 193 191 190 192 196 197 197
328 314 302 289 281 287 303 323 343 3 15 16 18 27 23 10 9 13 14 23 45 103 133 134 151 192 208 192 164 154 159 170 184 196 200 198 193 190 189 188 186 182 176 170 166 163 163 165 167 168 171 175 178 182 185 185 184 186 187 190 191 190 192
343 333 316 294 275 273 285 304 322 344 9 15 13 17 16 2 12 35 45 54 68 79 87 100 110 114 118 121 120 119 122 136 169 188 190 191 192 189 183 180 178 174 168 164 163 163 162 164 166 167 168 170 172 173 174 174 177 182 184 184 184 184 188
349 351 338 316 290 277 280 295 307 318 345 8 9 9 12 20 47 60 62 68 77 83 87 96 103 107 111 115 118 122 130 139 151 160 170 181 185 180 173 170 168 166 165 165 165 164 165 167 170 170 169 170 173 173 172 173 176 179 181 182 182 183 186
Height
2881 2878 2875 2872 2869 2867 2864 2862 2859 2857 2854 2852 2850 2849 2846 2844 2842 2839 2837 2836 2834 2834 2832 2831 2830 2831 2832 2832 2831 2831 2832 2833 2834 2833 2833 2834 2834 2834 2834 2834 2833 2829 2833 2840 2842 2845 2847 2847 2850 2852 2854 2855 2855 2856 2858 2859 2860 2862 2864 2866 2868 2870 2872
2872 2869 2865 2863 2860 2857 2854 2851 2848 2846 2843 2840 2839 2837 2836 2834 2832 2829 2828 2826 2824 2824 2822 2820 2819 2820 2822 2822 2821 2821 2822 2822 2824 2824 2823 2825 2825 2825 2825 2826 2825 2823 2824 2829 2834 2837 2838 2838 2840 2843 2846 2847 2848 2849 2851 2851 2853 2855 2856 2859 2860 2863 2865
2862 2859 2855 2852 2849 2846 2843 2840 2838 2835 2832 2829 2827 2825 2824 2823 2821 2818 2817 2816 2814 2814 2813 2810 2809 2809 2810 2811 2810 2810 2812 2812 2814 2814 2813 2815 2817 2816 2817 2818 2818 2817 2816 2819 2824 2828 2829 2829 2830 2834 2838 2840 2841 2843 2843 2844 2846 2848 2850 2852 2854 2856 2858
2852 2848 2845 2841 2838 2835 2832 2829 2826 2824 2821 2819 2816 2813 2812 2811 2810 2807 2806 2804 2803 2803 2802 2800 2798 2798 2799 2800 2799 2799 2802 2802 2803 2804 2804 2805 2808 2808 2808 2810 2810 2809 2810 2811 2815 2819 2820 2820 2821 2825 2829 2832 2833 2835 2836 2838 2840 2841 2843 2846 2847 2849 2852
2842 2838 2834 2831 2827 2824 2821 2818 2815 2812 2810 2808 2805 2802 2800 2799 2797 2796 2794 2793 2792 2791 2791 2789 2788 2788 2788 2788 2787 2788 2791 2792 2793 2794 2794 2796 2799 2800 2801 2802 2802 2802 2803 2803 2806 2810 2812 2812 2813 2816 2820 2823 2826 2827 2829 2831 2833 2835 2837 2839 2841 2843 2845
2832 2828 2824 2821 2817 2813 2810 2807 2803 2800 2797 2795 2793 2790 2788 2786 2784 2783 2782 2781 2781 2780 2779 2778 2777 2778 2778 2777 2776 2777 2780 2782 2783 2784 2785 2787 2790 2792 2793 2793 2793 2794 2795 2796 2798 2801 2803 2804 2806 2808 2811 2815 2819 2820 2822 2824 2826 2828 2831 2833 2835 2837 2839
2822 2818 2814 2810 2806 2802 2799 2795 2792 2789 2785 2783 2781 2778 2775 2773 2771 2770 2769 2768 2768 2768 2767 2767 2766 2766 2767 2767 2766 2767 2770 2772 2773 2774 2775 2777 2780 2783 2784 2784 2785 2786 2787 2788 2790 2792 2794 2796 2798 2800 2803 2807 2811 2813 2815 2818 2819 2822 2825 2828 2829 2831 2833
2812 2808 2804 2800 2796 2792 2788 2784 2781 2778 2774 2771 2769 2766 2763 2761 2759 2757 2756 2755 2755 2755 2755 2755 2755 2755 2755 2756 2757 2758 2760 2761 2763 2764 2765 2768 2771 2773 2774 2775 2777 2778 2779 2781 2782 2784 2787 2789 2791 2793 2795 2799 2803 2805 2808 2812 2814 2816 2820 2822 2822 2825 2828
2802 2798 2794 2790 2787 2783 2779 2775 2771 2768 2764 2760 2757 2753 2750 2748 2746 2744 2743 2742 2742 2742 2743 2743 2743 2743 2744 2746 2747 2748 2749 2751 2753 2754 2755 2759 2761 2763 2765 2766 2768 2769 2771 2773 2774 2777 2779 2781 2783 2785 2787 2791 2795 2800 2803 2807 2808 2810 2813 2815 2816 2819 2823
2794 2789 2785 2781 2777 2774 2770 2766 2762 2759 2755 2750 2746 2742 2738 2735 2734 2732 2730 2729 2729 2730 2730 2731 2731 2732 2734 2735 2736 2737 2739 2741 2743 2745 2746 2749 2752 2753 2755 2757 2759 2761 2763 2765 2767 2769 2772 2773 2775 2778 2781 2784 2790 2794 2798 2800 2802 2804 2807 2809 2811 2814 2817
2786 2781 2777 2772 2768 2764 2760 2756 2752 2748 2745 2742 2738 2733 2728 2724 2722 2720 2718 2717 2717 2717 2719 2720 2720 2721 2722 2724 2725 2726 2729 2731 2734 2736 2739 2741 2743 2744 2746 2748 2750 2753 2756 2758 2759 2762 2764 2766 2768 2772 2775 2779 2784 2788 2792 2794 2796 2798 2801 2803 2805 2809 2812
2777 2773 2769 2763 2759 2755 2751 2747 2742 2738 2734 2731 2728 2724 2718 2713 2710 2709 2708 2707 2706 2706 2707 2708 2709 2710 2711 2713 2714 2716 2719 2721 2724 2728 2730 2733 2735 2736 2738 2741 2743 2745 2748 2750 2753 2755 2757 2760 2762 2765 2769 2773 2778 2782 2786 2788 2790 2793 2795 2797 2799 2804 2808
2769 2764 2760 2755 2750 2745 2741 2737 2732 2727 2724 2720 2717 2713 2708 2703 2701 2699 2697 2696 2696 2697 2697 2698 2699 2700 2701 2703 2705 2707 2709 2712 2715 2719 2721 2724 2726 2728 2731 2735 2737 2739 2742 2744 2746 2748 2750 2754 2757 2759 2763 2769 2773 2776 2780 2782 2785 2787 2789 2791 2794 2799 2803
2760 2756 2752 2746 2740 2735 2731 2727 2722 2717 2713 2709 2705 2702 2699 2695 2693 2690 2689 2688 2688 2689 2689 2689 2690 2690 2692 2695 2697 2699 2701 2704 2708 2711 2713 2716 2719 2721 2724 2728 2731 2734 2736 2738 2739 2742 2745 2748 2751 2754 2759 2764 2768 2771 2774 2777 2780 2782 2784 2786 2790 2794 2797
2752 2747 2743 2738 2732 2725 2721 2717 2712 2707 2703 2699 2695 2693 2690 2687 2685 2683 2682 2681 2681 2682 2682 2682 2683 2683 2685 2687 2690 2692 2695 2698 2701 2704 2706 2709 2712 2714 2717 2720 2724 2727 2730 2732 2734 2736 2739 2743 2746 2749 2754 2758 2762 2765 2769 2772 2775 2776 2777 2781 2786 2790 2793
2744 2739 2734 2730 2724 2717 2712 2708 2703 2698 2694 2690 2687 2685 2682 2679 2678 2676 2675 2675 2675 2675 2675 2676 2677 2678 2679 2682 2684 2686 2691 2694 2697 2698 2700 2703 2706 2709 2711 2714 2717 2721 2725 2727 2729 2731 2734 2737 2741 2744 2748 2752 2756 2760 2764 2767 2769 2770 2772 2776 2782 2786 2788
2737 2732 2727 2721 2716 2710 2704 2700 2697 2693 2688 2685 2682 2679 2676 2673 2671 2670 2669 2668 2669 2669 2669 2670 2671 2672 2674 2677 2679 2682 2687 2691 2693 2693 2695 2698 2701 2703 2705 2708 2712 2716 2721 2724 2726 2728 2731 2734 2737 2740 2744 2748 2752 2755 2759 2761 2762 2764 2768 2773 2779 2782 2784
2730 2726 2721 2715 2709 2704 2698 2695 2692 2689 2684 2680 2677 2674 2671 2668 2666 2664 2663 2663 2663 2664 2664 2665 2666 2668 2669 2672 2674 2679 2683 2687 2689 2689 2690 2693 2696 2698 2700 2702 2706 2711 2715 2718 2721 2725 2727 2730 2733 2736 2740 2743 2747 2750 2753 2755 2757 2761 2765 2770 2775 2778 2778
2723 2719 2715 2710 2704 2700 2696 2691 2689 2686 2682 2677 2674 2671 2667 2664 2661 2659 2659 2659 2659 2659 2660 2660 2662 2664 2666 2668 2671 2675 2679 2682 2684 2685 2686 2689 2691 2693 2695 2698 2701 2706 2710 2713 2716 2720 2722 2725 2728 2732 2735 2738 2742 2745 2748 2751 2754 2758 2762 2767 2771 2772 2773
2718 2713 2709 2705 2701 2697 2694 2689 2685 2682 2678 2674 2670 2667 2664 2660 2657 2655 2655 2655 2655 2655 2656 2657 2658 2660 2663 2666 2669 2672 2674 2678 2681 2681 2683 2685 2687 2689 2692 2695 2698 2702 2707 2710 2713 2716 2719 2721 2725 2728 2731 2734 2737 2740 2742 2746 2750 2753 2758 2763 2766 2767 2770
2714 2708 2704 2701 2697 2694 2691 2688 2683 2679 2675 2670 2666 2663 2660 2657 2654 2652 2651 2651 2652 2652 2653 2654 2656 2658 2660 2663 2666 2669 2672 2675 2679 2679 2680 2682 2685 2687 2691 2694 2697 2701 2704 2707 2709 2712 2715 2718 2721 2725 2727 2729 2732 2734 2737 2742 2746 2749 2754 2759 2761 2764 2768
2710 2704 2700 2697 2694 2691 2689 2685 2681 2676 2671 2666 2662 2659 2657 2653 2650 2649 2649 2648 2649 2649 2650 2651 2653 2655 2658 2660 2663 2668 2671 2674 2677 2678 2678 2680 2683 2686 2689 2691 2694 2697 2699 2702 2704 2707 2710 2713 2717 2720 2723 2725 2727 2730 2733 2738 2742 2746 2751 2755 2758 2761 2765
2706 2701 2696 2693 2691 2689 2686 2682 2678 2673 2668 2663 2659 2656 2653 2650 2648 2647 2647 2646 2645 2646 2647 2649 2651 2653 2656 2658 2661 2665 2669 2672 2675 2676 2676 2679 2682 2684 2686 2688 2690 2693 2694 2697 2700 2702 2705 2709 2712 2716 2718 2720 2723 2726 2730 2734 2739 2744 2748 2752 2755 2758 2761
2702 2697 2693 2689 2687 2685 2682 2677 2673 2670 2666 2660 2655 2652 2650 2648 2645 2644 2644 2643 2642 2644 2646 2648 2650 2652 2654 2656 2659 2663 2667 2670 2673 2674 2675 2678 2680 2682 2683 2684 2686 2689 2690 2693 2696 2698 2702 2705 2708 2711 2715 2717 2720 2724 2728 2733 2738 2742 2746 2749 2752 2755 2757
2699 2694 2690 2687 2684 2681 2677 2673 2670 2668 2663 2658 2653 2649 2647 2645 2643 2642 2641 2640 2641 2643 2645 2647 2649 2651 2653 2655 2658 2661 2664 2667 2669 2671 2674 2676 2677 2679 2680 2681 2683 2686 2687 2689 2692 2695 2699 2702 2705 2709 2713 2716 2719 2724 2728 2731 2735 2739 2743 2745 2749 2752 2754
2696 2692 2688 2685 2682 2677 2673 2670 2669 2666 2661 2656 2651 2648 2646 2644 2642 2640 2639 2639 2641 2643 2644 2647 2649 2650 2652 2654 2656 2658 2660 2663 2665 2668 2671 2673 2675 2676 2678 2678 2680 2683 2684 2687 2690 2693 2696 2700 2704 2708 2711 2714 2717 2721 2725 2728 2732 2736 2739 2742 2745 2748 2751
2693 2690 2686 2682 2679 2675 2672 2670 2668 2664 2659 2655 2651 2648 2646 2644 2642 2641 2639 2639 2640 2642 2644 2647 2649 2650 2651 2652 2654 2656 2658 2660 2663 2665 2668 2670 2672 2674 2675 2676 2678 2681 2683 2686 2688 2692 2695 2699 2702 2705 2708 2710 2714 2718 2722 2726 2729 2732 2736 2740 2743 2746 2748
2690 2687 2683 2680 2677 2674 2672 2671 2668 2663 2659 2656 2653 2650 2647 2645 2643 2642 2640 2640 2640 2642 2644 2647 2648 2649 2650 2652 2653 2655 2657 2658 2661 2663 2666 2668 2669 2671 2673 2674 2677 2680 2682 2685 2688 2691 2694 2696 2699 2702 2704 2707 2711 2716 2720 2723 2726 2730 2734 2738 2740 2743 2746
2688 2685 2682 2680 2678 2676 2673 2670 2667 2664 2661 2659 2656 2653 2649 2647 2645 2644 2642 2641 2642 2643 2645 2647 2648 2649 2650 2651 2653 2654 2656 2657 2660 2662 2664 2666 2668 2670 2672 2673 2676 2679 2682 2684 2687 2689 2692 2694 2697 2699 2702 2706 2710 2714 2718 2721 2724 2728 2732 2735 2738 2741 2744
2688 2685 2683 2681 2679 2678 2676 2673 2669 2666 2664 2661 2658 2655 2651 2649 2647 2646 2644 2643 2643 2644 2646 2647 2648 2650 2650 2651 2652 2654 2655 2656 2658 2660 2662 2664 2667 2669 2672 2674 2676 2679 2681 2683 2686 2688 2691 2693 2695 2698 2701 2704 2708 2712 2716 2720 2723 2727 2731 2733 2736 2739 2741
2688 2686 2684 2681 2680 2679 2678 2675 2672 2668 2665 2662 2659 2657 2654 2651 2649 2648 2646 2645 2645 2645 2646 2647 2648 2650 2651 2651 2652 2653 2654 2656 2657 2659 2661 2663 2665 2668 2671 2673 2676 2679 2681 2683 2685 2687 2690 2692 2695 2698 2701 2704 2708 2711 2715 2719 2722 2725 2728 2732 2735 2737 2739
2687 2685 2684 2682 2680 2679 2677 2675 2672 2669 2666 2663 2660 2658 2655 2653 2651 2650 2648 2647 2646 2646 2647 2648 2649 2650 2650 2651 2652 2653 2654 2655 2657 2659 2660 2662 2664 2667 2670 2672 2675 2678 2680 2682 2684 2687 2689 2692 2695 2698 2701 2704 2707 2711 2714 2717 2720 2723 2726 2730 2733 2735 2738
2686 2684 2682 2681 2680 2678 2677 2675 2672 2669 2666 2664 2661 2659 2657 2655 2654 2651 2649 2647 2646 2646 2647 2648 2649 2650 2650 2651 2652 2653 2654 2655 2656 2658 2660 2662 2663 2666 2668 2672 2675 2678 2680 2682 2684 2687 2690 2693 2695 2698 2701 2704 2707 2710 2713 2716 2719 2722 2725 2728 2731 2734 2737
2686 2683 2681 2679 2678 2677 2676 2675 2672 2670 2667 2665 2662 2660 2659 2658 2656 2653 2651 2648 2647 2647 2648 2648 2649 2650 2651 2652 2652 2653 2654 2655 2657 2658 2660 2662 2663 2666 2668 2672 2675 2677 2680 2682 2685 2687 2690 2693 2696 2698 2701 2703 2706 2709 2712 2715 2718 2721 2724 2727 2730 2733 2736
2685 2682 2679 2677 2677 2676 2675 2673 2672 2670 2668 2666 2664 2662 2661 2660 2658 2655 2653 2651 2649 2649 2649 2650 2650 2651 2652 2653 2654 2655 2656 2657 2658 2659 2661 2663 2665 2667 2670 2673 2676 2678 2680 2683 2686 2688 2691 2693 2696 2698 2701 2704 2706 2709 2712 2715 2718 2721 2724 2726 2729 2732 2734
2683 2681 2678 2676 2675 2674 2673 2672 2671 2670 2668 2666 2665 2663 2662 2661 2659 2657 2655 2654 2653 2652 2652 2652 2652 2654 2655 2656 2656 2657 2658 2659 2659 2660 2662 2664 2666 2669 2672 2674 2677 2679 2682 2684 2687 2689 2692 2694 2696 2699 2701 2704 2707 2710 2712 2715 2718 2720 2723 2726 2729 2731 2733